Location: Cisewo
(53.3833°N, 14.9000°E)
Time: 11:21:38
(UTC+00:00)

Meteor 2-2 Rocket - Pass Details

Date: 18 April 2021
Orbit: 852 x 929 km, 81.3° (Epoch: 14 May)

Event Time Altitude Azimuth Distance (km) Brightness Sun altitude
Exits shadow 21:18:01 45° 166° (SSE) 1,180 4.5 -21.9°
Maximum altitude 21:19:45 70° 99° (E) 932 4.2 -22.0°
Drops below altitude 10° 21:25:27 10° 17° (NNE) 2,520 7.3 -22.4°
Sets 21:27:52 0° 15° (NNE) 3,454 8.1 -22.6°
